Peachtree City, GA

12:10 AM EDT on October 20, 2019 (GMT -0400)
Peachtree City-Falcon

Weather History for KFFC - September, 2019

Change the Weather History Date:

Friday, September 20, 2019

  Actual Average Record
Temperature  
Mean Temperature 72 °F 71 °F  
Max Temperature 86 °F 83 °F 96 °F (2018)
Min Temperature 57 °F 59 °F 48 °F (2004)
Degree Days  
Heating Degree Days 0 1  
Month to date heating degree days 0 1  
Since 1 July heating degree days 0 1  
Cooling Degree Days 6 6  
Month to date cooling degree days 331 181  
Year to date cooling degree days 2164 1561  
Growing Degree Days 22 (Base 50)    
Moisture  
Dew Point 53 °F    
Average Humidity 58    
Maximum Humidity 93    
Minimum Humidity 24    
Precipitation  
Precipitation 0.00 in 0.14 in 0.66 in (2002)
Month to date precipitation 0.36 2.45  
Year to date precipitation 33.41 37.18  
Snow  
Snow 0.00 in - - ()
Month to date snowfall 0.0  
Since 1 July snowfall 0.0  
Since 1 September snowfall 0.0  
Snow Depth 0.00 in    
Sea Level Pressure  
Sea Level Pressure 30.25 in    
Wind  
Wind Speed 4 mph ()    
Max Wind Speed 15 mph    
Max Gust Speed 19 mph    
Visibility 10.0 miles    
Events      
T = Trace of Precipitation, MM = Missing Value Source: Averaged Metar Reports

Daily Weather History Graph

Daily Weather History Graph

Search for Another Location

Airport or City:

Astronomy

Sep. 20, 2019 Rise Set
Actual Time 7:24 AM EDT 7:38 PM EDT
Civil Twilight 7:00 AM EDT 8:02 PM EDT
Nautical Twilight 6:31 AM EDT 8:31 PM EDT
Astronomical Twilight 6:01 AM EDT 9:01 PM EDT
Moon 11:44 PM EDT 1:11 PM EDT
Length of Visible Light 13h 02m
Length of Day
12h 13m
Waning Gibbous, 65% of the Moon is Illuminated
Sep 20
Waning Gibbous
Sep 21
Last Quarter
Sep 28
New
Oct 5
First Quarter
Oct 13
Full

Hourly Weather History & Observations

Time (EDT) Temp. Dew Point Humidity Pressure Visibility Wind Dir Wind Speed Gust Speed Precip Events Conditions
12:53 AM 68.0 °F 55.9 °F 65% 30.22 in 10.0 mi East 4.6 mph - N/A   Clear
1:53 AM 64.0 °F 57.9 °F 80% 30.23 in 10.0 mi Variable 3.5 mph - N/A   Clear
2:53 AM 66.0 °F 54.0 °F 65% 30.22 in 10.0 mi East 5.8 mph - N/A   Clear
3:53 AM 64.9 °F 53.1 °F 65% 30.23 in 10.0 mi East 3.5 mph - N/A   Clear
4:53 AM 63.0 °F 54.0 °F 72% 30.24 in 10.0 mi Calm Calm - N/A   Clear
5:53 AM 60.1 °F 55.0 °F 83% 30.25 in 10.0 mi Calm Calm - N/A   Clear
6:53 AM 57.9 °F 55.0 °F 90% 30.26 in 10.0 mi Calm Calm - N/A   Clear
7:53 AM 57.9 °F 55.0 °F 90% 30.29 in 10.0 mi Calm Calm - N/A   Clear
8:53 AM 64.9 °F 55.0 °F 70% 30.30 in 10.0 mi East 6.9 mph - N/A   Clear
9:53 AM 70.0 °F 54.0 °F 57% 30.31 in 10.0 mi ESE 8.1 mph - N/A   Clear
10:53 AM 75.0 °F 52.0 °F 44% 30.31 in 10.0 mi East 10.4 mph 18.4 mph N/A   Clear
11:53 AM 78.1 °F 51.1 °F 39% 30.31 in 10.0 mi East 10.4 mph - N/A   Clear
12:53 PM 80.1 °F 52.0 °F 38% 30.29 in 10.0 mi East 9.2 mph 17.3 mph N/A   Clear
1:53 PM 81.0 °F 52.0 °F 36% 30.27 in 10.0 mi East 8.1 mph - N/A   Clear
2:53 PM 84.0 °F 51.1 °F 32% 30.24 in 10.0 mi ESE 10.4 mph - N/A   Clear
3:53 PM 84.9 °F 48.9 °F 29% 30.22 in 10.0 mi ENE 9.2 mph - N/A   Clear
4:53 PM 84.9 °F 50.0 °F 30% 30.21 in 10.0 mi SE 9.2 mph - N/A   Clear
5:53 PM 84.9 °F 46.9 °F 27% 30.21 in 10.0 mi East 8.1 mph - N/A   Clear
6:53 PM 82.9 °F 43.0 °F 24% 30.21 in 10.0 mi ESE 6.9 mph - N/A   Clear
7:53 PM 70.0 °F 54.0 °F 57% 30.23 in 10.0 mi Calm Calm - N/A   Clear
8:53 PM 64.9 °F 54.0 °F 68% 30.24 in 10.0 mi Calm Calm - N/A   Clear
9:53 PM 62.1 °F 55.0 °F 78% 30.25 in 10.0 mi Calm Calm - N/A   Clear
10:53 PM 61.0 °F 54.0 °F 78% 30.26 in 10.0 mi Calm Calm - N/A   Clear
11:53 PM 60.1 °F 55.0 °F 83% 30.27 in 10.0 mi Calm Calm - N/A   Clear